1532736000.29,49834,19.94,74096.3,4.77,-14.29,-14.65,0,*73
1532736001.55,49835,19.88,74098.5,4.75,-14.37,-14.79,0,*72
1532736002.76,49836,19.94,74098.0,4.77,-14.23,-14.65,0,*7B
1532736003.97,49837,19.94,74100.0,4.77,-14.19,-14.61,0,*77
1532736005.22,49838,19.94,74098.8,4.75,-14.37,-14.93,0,*7B
1532736006.45,49839,19.94,74100.8,4.77,-14.61,-15.01,0,*71
1532736007.67,49840,19.94,74098.8,4.77,-14.75,-15.07,0,*7C
1532736008.9,49841,19.94,74098.0,4.77,-14.79,-15.11,0,*76
1532736010.12,49842,19.94,74098.8,4.77,-14.75,-15.11,0,*79
1532736011.35,49843,19.94,74098.3,4.77,-14.65,-15.01,0,*78
1532736012.57,49844,19.94,74098.5,4.77,-14.75,-15.07,0,*78
1532736013.77,49845,19.88,74098.3,4.77,-14.61,-15.07,0,*7C
1532736015.03,49846,19.94,74098.8,4.75,-14.93,-15.29,0,*7C
1532736016.28,49847,19.94,74098.3,4.77,-15.01,-15.39,0,*74
1532736017.53,49848,19.94,74098.8,4.75,-14.93,-15.29,0,*72
1532736018.76,49849,19.88,74098.8,4.77,-14.75,-15.11,0,*72
1532736019.96,49850,19.94,74096.0,4.77,-14.65,-15.11,0,*7B
1532736021.19,49851,19.94,74098.8,4.77,-14.37,-14.79,0,*72
1532736022.41,49852,19.94,74102.3,4.77,-14.61,-14.93,0,*76
1532736023.67,49853,19.94,74098.8,4.77,-14.51,-15.01,0,*7E
1532736024.89,49854,19.94,74100.0,4.75,-14.69,-15.07,0,*76
1532736026.1,49855,19.88,74096.5,4.77,-14.89,-15.25,0,*7B
1532736027.33,49856,19.94,74102.0,4.77,-14.37,-14.79,0,*75
1532736028.54,49857,19.94,74098.3,4.77,-14.23,-14.61,0,*78
1532736029.74,49858,19.88,74098.3,4.77,-14.33,-14.61,0,*76
1532736031.0,49859,19.94,74102.0,4.77,-14.47,-14.93,0,*79
1532736032.29,49860,19.94,74098.8,4.79,-14.47,-14.83,0,*7C
1532736033.57,49861,19.94,74098.8,4.79,-14.43,-14.83,0,*79
1532736034.82,49862,19.88,74096.0,4.79,-14.33,-14.75,0,*74
1532736036.08,49863,19.94,74098.0,4.79,-14.55,-14.89,0,*76
1532736037.33,49864,19.94,74096.8,4.79,-14.61,-14.97,0,*79
1532736038.57,49865,19.88,74096.5,4.81,-14.97,-15.35,0,*7F
1532736039.83,49866,19.94,74102.0,4.79,-14.83,-15.29,0,*73
1532736041.09,49867,19.88,74098.5,4.79,-14.55,-14.89,0,*72
1532736042.37,49868,19.94,74098.0,4.79,-14.55,-14.97,0,*72
1532736043.57,49869,19.94,74098.0,4.81,-14.69,-15.07,0,*73
1532736044.78,49870,19.94,74098.8,4.81,-14.69,-15.21,0,*7F
1532736046.03,49871,19.88,74098.3,4.79,-14.75,-15.07,0,*70
1532736047.28,49872,19.94,74096.5,4.79,-14.75,-15.07,0,*73
1532736048.53,49873,19.94,74098.0,4.81,-14.75,-15.01,0,*73
1532736049.76,49874,19.88,74094.3,4.81,-14.47,-14.89,0,*74
1532736051.01,49875,19.88,74098.3,4.81,-14.55,-15.01,0,*77
1532736052.24,49876,19.88,74098.0,4.81,-14.61,-14.97,0,*7D
1532736053.52,49877,19.94,74098.3,4.79,-14.55,-14.83,0,*79
1532736054.74,49878,19.94,74098.8,4.81,-14.61,-15.01,0,*7D
1532736055.96,49879,19.94,74098.8,4.81,-14.75,-15.07,0,*7F
1532736057.24,49880,19.94,74096.3,4.79,-14.83,-15.21,0,*73
1532736058.49,49881,19.94,74098.3,4.81,-14.75,-15.01,0,*7E
1532736059.74,49882,19.94,74096.3,4.79,-14.61,-14.97,0,*71
1532736060.97,49883,19.94,74100.5,4.81,-14.75,-15.07,0,*7A
1532736062.19,49884,19.94,74096.3,4.81,-14.61,-15.01,0,*7E
1532736063.38,49885,19.94,74100.5,4.81,-14.69,-15.07,0,*71
1532736064.6,49886,19.94,74098.0,4.81,-14.61,-14.97,0,*72
1532736065.86,49887,19.94,74096.0,4.79,-14.55,-14.89,0,*7C
1532736067.12,49888,19.88,74096.5,4.81,-14.47,-15.01,0,*76
1532736068.34,49889,19.88,74098.3,4.81,-14.75,-15.07,0,*70
1532736069.59,49890,19.88,74096.0,4.81,-14.83,-15.21,0,*75
1532736070.84,49891,19.88,74098.8,4.81,-14.75,-15.21,0,*7D
1532736072.08,49892,19.88,74096.0,4.81,-14.97,-15.35,0,*77
1532736073.32,49893,19.94,74098.5,4.81,-14.97,-15.35,0,*76
1532736074.58,49894,19.88,74096.5,4.79,-15.01,-15.49,0,*73
1532736075.78,49895,19.94,74100.0,4.81,-15.07,-15.49,0,*73
1532736077.01,49896,19.94,74098.8,4.79,-14.89,-15.29,0,*76
1532736078.21,49897,19.94,74096.5,4.81,-14.61,-15.07,0,*7A
1532736079.43,49898,19.94,74098.3,4.81,-14.33,-14.75,0,*76
1532736080.66,49899,19.94,74100.3,4.81,-14.55,-14.89,0,*74
1532736081.9,49900,19.94,74102.3,4.81,-14.47,-14.89,0,*76
1532736083.1,49901,19.94,74100.5,4.81,-14.33,-14.69,0,*7A
1532736084.35,49902,19.94,74102.8,4.85,-14.43,-14.83,0,*7E
1532736085.6,49903,19.94,74098.8,4.85,-14.43,-14.83,0,*7F
1532736086.82,49904,19.88,74096.5,4.85,-14.65,-15.01,0,*77
1532736088.08,49905,19.88,74096.3,4.87,-14.79,-15.25,0,*7F
1532736089.33,49906,19.94,74102.3,4.85,-14.55,-14.97,0,*78
1532736090.59,49907,19.88,74098.5,4.85,-14.51,-14.93,0,*79
1532736091.84,49908,19.94,74100.8,4.85,-14.43,-14.79,0,*71
1532736093.08,49909,19.94,74102.3,4.87,-14.69,-15.01,0,*74
1532736094.33,49910,19.88,74098.8,4.87,-14.79,-15.15,0,*78
1532736095.56,49911,19.94,74096.8,4.85,-14.79,-15.29,0,*74
1532736096.81,49912,19.88,74098.0,4.85,-14.55,-14.93,0,*79
1532736098.06,49913,19.94,74098.5,4.87,-14.65,-14.97,0,*7D
1532736099.34,49914,19.94,74098.8,4.87,-14.55,-14.97,0,*79
1532736100.62,49915,19.94,74098.3,4.87,-14.79,-15.01,0,*78
1532736101.85,49916,19.88,74096.8,4.85,-14.79,-15.25,0,*7F
1532736103.07,49917,19.94,74100.5,4.85,-14.65,-15.01,0,*75
1532736104.33,49918,19.94,74100.0,4.87,-14.83,-15.29,0,*7A
1532736105.6,49919,19.94,74102.8,4.87,-15.01,-15.57,0,*79
1532736106.85,49920,19.94,74098.0,4.85,-14.97,-15.39,0,*77
1532736108.13,49921,19.88,74096.5,4.87,-14.83,-15.39,0,*71
1532736109.36,49922,19.94,74098.8,4.85,-14.79,-15.15,0,*7B
1532736110.58,49923,19.88,74096.8,4.85,-14.93,-15.29,0,*71
1532736111.83,49924,19.88,74098.3,4.85,-14.93,-15.39,0,*77
1532736113.06,49925,19.94,74100.0,4.85,-14.97,-15.25,0,*7F
1532736114.29,49926,19.88,74096.5,4.85,-14.79,-15.25,0,*7C
1532736115.55,49927,19.88,74096.0,4.87,-14.79,-15.25,0,*7F
1532736116.79,49928,19.88,74098.5,4.85,-14.93,-15.43,0,*76
1532736118.04,49929,19.88,74096.8,4.85,-15.01,-15.43,0,*7D
1532736119.26,49930,19.88,74098.8,4.85,-14.97,-15.53,0,*7A
1532736120.51,49931,19.94,74100.5,4.85,-14.97,-15.43,0,*7A
1532736121.75,49932,19.94,74100.8,4.85,-14.97,-15.39,0,*74
1532736123.0,49933,19.88,74098.0,4.85,-14.97,-15.39,0,*75
1532736124.25,49934,19.94,74096.5,4.85,-14.97,-15.39,0,*72
1532736125.5,49935,19.88,74092.8,4.85,-14.97,-15.39,0,*73
1532736126.7,49936,19.88,74100.0,4.81,-15.15,-15.49,0,*78
1532736127.91,49937,19.88,74098.0,4.81,-15.29,-15.71,0,*7D
1532736129.11,49938,19.94,74098.5,4.81,-15.29,-15.71,0,*72
1532736130.33,49939,19.94,74100.5,4.81,-15.21,-15.71,0,*7B
1532736131.53,49940,19.94,74100.8,4.81,-15.29,-15.75,0,*79
1532736132.78,49941,19.94,74100.0,4.79,-15.35,-15.71,0,*76
1532736134.03,49942,19.88,74098.5,4.81,-15.01,-15.43,0,*74
1532736135.28,49943,19.94,74100.3,4.79,-15.07,-15.57,0,*71
1532736136.5,49944,19.94,74100.0,4.81,-15.01,-15.49,0,*78
1532736137.77,49945,19.88,74096.5,4.79,-15.01,-15.43,0,*74
1532736138.97,49946,19.94,74100.0,4.81,-15.15,-15.63,0,*77
1532736140.21,49947,19.94,74100.0,4.79,-15.07,-15.49,0,*7A
1532736141.46,49948,19.88,74096.8,4.79,-15.15,-15.57,0,*79
1532736142.68,49949,19.94,74102.3,4.81,-15.21,-15.71,0,*7C
1532736143.91,49950,19.88,74100.3,4.79,-15.15,-15.63,0,*77
1532736145.15,49951,19.88,74096.5,4.79,-15.21,-15.75,0,*76
1532736146.4,49952,19.94,74102.8,4.79,-15.21,-15.71,0,*71
1532736147.62,49953,19.88,74098.3,4.79,-15.15,-15.63,0,*74
1532736148.85,49954,19.88,74096.8,4.75,-15.25,-15.71,0,*7F
1532736150.1,49955,19.94,74098.8,4.79,-15.21,-15.63,0,*75
1532736151.3,49956,19.88,74098.5,4.77,-15.07,-15.63,0,*7C
1532736152.57,49957,19.88,74098.5,4.79,-15.01,-15.57,0,*72
1532736153.82,49958,19.94,74100.5,4.77,-14.93,-15.39,0,*71
1532736155.07,49959,19.94,74102.0,4.77,-14.75,-15.01,0,*73
1532736156.29,49960,19.88,74100.0,4.77,-14.89,-15.35,0,*7D
1532736157.53,49961,19.88,74096.0,4.77,-14.79,-15.25,0,*72
1532736158.76,49962,19.88,74098.0,4.77,-14.79,-15.11,0,*76
1532736159.98,49963,19.88,74098.8,4.77,-14.75,-15.11,0,*7B
1532736161.21,49964,19.88,74098.5,4.77,-14.61,-14.93,0,*72
1532736162.43,49965,19.88,74098.3,4.79,-14.69,-15.07,0,*79
1532736163.67,49966,19.94,74100.5,4.79,-14.61,-15.01,0,*74
1532736164.9,49967,19.88,74100.3,4.79,-14.33,-14.69,0,*7D
1532736166.14,49968,19.88,74096.8,4.79,-14.69,-15.01,0,*72
1532736167.43,49969,19.88,74100.5,4.79,-14.47,-14.83,0,*74
1532736168.62,49970,19.94,74102.3,4.81,-14.69,-15.07,0,*7A
1532736169.84,49971,19.94,74100.5,4.81,-14.75,-15.07,0,*76
1532736171.09,49972,19.94,74100.8,4.81,-14.55,-14.97,0,*7F
1532736172.37,49973,19.88,74100.0,4.79,-14.55,-15.01,0,*77
1532736173.59,49974,19.94,74102.3,4.81,-14.69,-15.01,0,*78
1532736174.82,49975,19.88,74096.0,4.81,-14.75,-15.29,0,*7E
1532736176.03,49976,19.88,74100.0,4.81,-14.69,-15.21,0,*78
1532736177.28,49977,19.88,74098.0,4.81,-14.75,-15.21,0,*74
1532736178.53,49978,19.88,74096.8,4.81,-14.83,-15.21,0,*72
1532736179.78,49979,19.88,74096.0,4.81,-14.75,-15.21,0,*7A
1532736180.98,49980,19.94,74100.5,4.81,-14.61,-15.07,0,*7D
1532736182.2,49981,19.88,74098.0,4.81,-14.61,-15.01,0,*7A
1532736183.4,49982,19.94,74100.5,4.81,-14.61,-15.07,0,*7F
1532736184.61,49983,19.88,74100.0,4.81,-14.69,-15.21,0,*72
1532736185.85,49984,19.88,74098.3,4.81,-14.83,-15.29,0,*79
1532736187.07,49985,19.94,74100.5,4.81,-14.69,-14.97,0,*78
1532736188.29,49986,19.88,74096.8,4.85,-14.65,-15.01,0,*7D
1532736189.51,49987,19.94,74098.8,4.87,-14.69,-15.15,0,*77
1532736190.79,49988,19.94,74100.3,4.87,-14.51,-14.83,0,*7D
1532736192.01,49989,19.94,74102.3,4.85,-14.69,-15.01,0,*7E
1532736193.21,49990,19.88,74098.5,4.85,-14.69,-15.25,0,*70
1532736194.42,49991,19.94,74100.3,4.85,-14.69,-15.01,0,*77
1532736195.65,49992,19.88,74096.3,4.85,-14.83,-15.15,0,*75
1532736196.91,49993,19.88,74096.8,4.85,-14.51,-14.97,0,*70
1532736198.1,49994,19.88,74098.0,4.85,-14.69,-15.15,0,*77
1532736199.32,49995,19.88,74098.5,4.87,-14.65,-15.15,0,*78
1532736200.61,49996,19.88,74098.5,4.87,-14.51,-14.79,0,*77
1532736201.89,49997,19.88,74098.3,4.87,-14.51,-14.93,0,*72
1532736203.11,49998,19.94,74100.5,4.87,-14.65,-15.15,0,*75
1532736204.34,49999,19.94,74100.0,4.85,-14.79,-15.29,0,*74
1532736205.6,50000,19.88,74100.0,4.87,-14.93,-15.29,0,*73
1532736206.87,50001,19.88,74098.3,4.87,-14.93,-15.39,0,*73
1532736208.14,50002,19.88,74098.0,4.87,-15.01,-15.43,0,*77
1532736209.39,50003,19.88,74100.0,4.87,-15.01,-15.53,0,*77
1532736210.66,50004,19.88,74096.0,4.87,-14.83,-15.29,0,*76
1532736211.92,50005,19.88,74096.8,4.87,-14.83,-15.29,0,*77
1532736213.16,50006,19.88,74100.0,4.87,-14.69,-15.01,0,*7A
1532736214.44,50007,19.88,74098.8,4.87,-14.93,-15.39,0,*75
1532736215.67,50008,19.88,74098.3,4.85,-14.79,-15.25,0,*71
1532736216.91,50009,19.88,74098.5,4.87,-14.69,-15.01,0,*75
1532736218.19,50010,19.88,74098.5,4.87,-14.55,-14.97,0,*7C
1532736219.44,50011,19.88,74100.0,4.87,-14.65,-14.93,0,*7A
1532736220.72,50012,19.88,74098.5,4.87,-14.51,-14.97,0,*7A
1532736222.01,50013,19.94,74102.3,4.87,-14.51,-14.83,0,*7E
1532736223.22,50014,19.94,74100.5,4.89,-14.61,-14.93,0,*75
1532736224.44,50015,19.94,74100.5,4.89,-14.65,-15.21,0,*78
1532736225.72,50016,19.88,74100.3,4.91,-14.55,-14.93,0,*79
1532736226.93,50017,19.88,74098.8,4.89,-14.65,-14.97,0,*76
1532736228.13,50018,19.88,74100.5,4.89,-14.61,-15.11,0,*72
1532736229.32,50019,19.94,74102.5,4.89,-14.65,-15.11,0,*77
1532736230.54,50020,19.88,74096.0,4.89,-14.65,-14.93,0,*76
1532736231.78,50021,19.88,74098.8,4.89,-14.75,-15.21,0,*7E
1532736232.99,50022,19.88,74096.0,4.89,-14.89,-15.25,0,*7A
1532736234.19,50023,19.88,74096.5,4.89,-14.89,-15.25,0,*7B
1532736235.38,50024,19.88,74098.5,4.89,-14.61,-15.11,0,*7D
1532736236.6,50025,19.88,74096.0,4.89,-14.61,-14.97,0,*73
1532736237.82,50026,19.88,74096.5,4.89,-14.65,-14.97,0,*74
1532736239.1,50027,19.88,74100.0,4.91,-14.55,-14.93,0,*7B
1532736240.32,50028,19.88,74096.3,4.91,-14.69,-15.25,0,*77
1532736241.6,50029,19.94,74100.8,4.91,-14.83,-15.21,0,*76
1532736242.8,50030,19.88,74096.8,4.89,-14.89,-15.25,0,*79
1532736244.02,50031,19.94,74102.3,4.89,-14.89,-15.35,0,*79
1532736245.25,50032,19.88,74098.5,4.89,-14.89,-15.39,0,*76
1532736246.49,50033,19.88,74098.0,4.89,-14.93,-15.35,0,*70
1532736247.71,50034,19.88,74098.0,4.89,-14.89,-15.35,0,*7C
1532736248.95,50035,19.94,74102.5,4.89,-14.97,-15.39,0,*7E
1532736250.18,50036,19.94,74100.0,4.89,-14.93,-15.49,0,*7E
1532736251.4,50037,19.94,74100.5,4.89,-14.97,-15.49,0,*7B
1532736252.64,50038,19.88,74098.3,4.89,-14.97,-15.39,0,*73
1532736253.89,50039,19.88,74096.3,4.89,-14.97,-15.39,0,*72
1532736255.13,50040,19.88,74100.0,4.89,-14.93,-15.35,0,*74
1532736256.32,50041,19.88,74096.8,4.89,-14.65,-15.11,0,*7A
1532736257.54,50042,19.94,74098.5,4.89,-14.65,-14.97,0,*76
1532736258.76,50043,19.94,74098.8,4.89,-14.65,-15.21,0,*7B
1532736259.96,50044,19.88,74096.0,4.89,-14.89,-15.25,0,*7A
1532736261.16,50045,19.88,74100.0,4.89,-14.89,-15.25,0,*7B
1532736262.38,50046,19.88,74098.3,4.89,-14.75,-15.11,0,*7C
1532736263.6,50047,19.88,74098.8,4.91,-14.69,-15.15,0,*7D
1532736264.84,50048,19.94,74100.0,4.89,-14.79,-15.21,0,*7D
1532736266.06,50049,19.94,74100.5,4.89,-14.65,-14.97,0,*7D
1532736267.34,50050,19.88,74098.5,4.91,-14.47,-14.83,0,*79
1532736268.62,50051,19.88,74096.5,4.91,-14.55,-14.93,0,*7A
1532736269.9,50052,19.88,74096.8,4.91,-14.47,-14.93,0,*7A
1532736271.15,50053,19.94,74100.5,4.91,-14.33,-14.83,0,*79
1532736272.39,50054,19.88,74098.3,4.91,-14.43,-14.69,0,*7D
1532736273.61,50055,19.88,74098.3,4.91,-14.29,-14.69,0,*70
1532736274.85,50056,19.88,74096.5,4.93,-14.19,-14.61,0,*7A
1532736276.06,50057,19.88,74098.8,4.95,-14.29,-14.65,0,*7A
1532736277.29,50058,19.94,74100.8,4.95,-14.29,-14.55,0,*76
1532736278.54,50059,19.88,74098.3,4.95,-14.55,-15.01,0,*7C
1532736279.82,50060,19.88,74096.5,4.93,-14.43,-14.75,0,*75
1532736281.02,50061,19.88,74098.8,4.95,-14.29,-14.69,0,*73
1532736282.26,50062,19.94,74100.5,4.95,-14.15,-14.55,0,*70
1532736283.52,50063,19.94,74100.5,4.97,-14.15,-14.55,0,*73
1532736284.78,50064,19.88,74100.0,4.97,-14.15,-14.55,0,*74
1532736286.04,50065,19.88,74098.0,4.97,-14.15,-14.55,0,*75
1532736287.3,50066,19.88,74096.0,4.97,-14.23,-14.55,0,*73
1532736288.55,50067,19.88,74096.0,4.97,-14.11,-14.51,0,*77
1532736289.81,50068,19.88,74096.5,4.97,-14.23,-14.55,0,*7D
1532736291.01,50069,19.94,74096.5,4.99,-14.33,-14.61,0,*74
1532736292.27,50070,19.88,74100.0,4.97,-14.23,-14.55,0,*74
1532736293.51,50071,19.88,74098.8,4.99,-14.11,-14.47,0,*79
1532736294.76,50072,19.88,74096.8,4.97,-14.23,-14.51,0,*72
1532736295.97,50073,19.88,74098.3,4.99,-14.11,-14.37,0,*7C
1532736297.21,50074,19.88,74098.5,4.99,-14.11,-14.47,0,*7C
1532736298.47,50075,19.88,74096.5,4.99,-14.05,-14.47,0,*78
1532736299.69,50076,19.88,74098.3,5.01,-14.33,-14.69,0,*72
1532736300.91,50077,19.88,74096.5,5.01,-14.61,-15.07,0,*7D
1532736302.13,50078,19.88,74096.3,5.01,-14.69,-15.07,0,*7A
1532736303.38,50079,19.88,74096.5,5.01,-14.75,-15.15,0,*75
1532736304.65,50080,19.88,74096.3,5.01,-14.75,-15.21,0,*74
1532736305.9,50081,19.88,74096.5,5.01,-14.55,-15.07,0,*73
1532736307.15,50082,19.88,74094.3,5.01,-14.61,-15.01,0,*71
1532736308.43,50083,19.94,74102.0,5.01,-14.47,-14.93,0,*7E
1532736309.71,50084,19.88,74098.5,5.01,-14.43,-14.79,0,*79
1532736310.96,50085,19.88,74096.8,5.01,-14.55,-15.07,0,*77
1532736312.21,50086,19.88,74096.0,5.01,-14.61,-15.01,0,*75
1532736313.48,50087,19.88,74096.8,5.01,-14.55,-14.93,0,*79
1532736314.77,50088,19.88,74098.5,5.01,-14.47,-14.79,0,*71
1532736316.02,50089,19.88,74096.8,5.03,-14.43,-14.93,0,*72
1532736317.24,50090,19.88,74096.8,5.01,-14.69,-15.15,0,*7F
1532736318.51,50091,19.94,74102.3,5.01,-14.79,-15.21,0,*78
1532736319.78,50092,19.88,74096.5,5.01,-14.75,-15.21,0,*77
1532736321.04,50093,19.88,74096.8,5.01,-14.79,-15.29,0,*72
1532736322.25,50094,19.88,74098.3,5.01,-14.69,-15.07,0,*78
1532736323.53,50095,19.88,74098.0,5.01,-14.55,-14.93,0,*7A
1532736324.73,50096,19.88,74096.8,5.03,-14.29,-14.69,0,*75
1532736325.95,50097,19.88,74098.3,5.01,-14.33,-14.69,0,*7D
1532736327.17,50098,19.88,74094.5,5.01,-14.29,-14.61,0,*71
1532736328.43,50099,19.88,74096.5,5.01,-14.19,-14.55,0,*74
1532736329.66,50100,19.88,74098.3,5.03,-14.19,-14.55,0,*77
1532736330.89,50101,19.88,74098.3,5.01,-14.29,-14.61,0,*70
1532736332.14,50102,19.88,74096.0,5.03,-14.55,-14.93,0,*77
1532736333.38,50103,19.88,74098.0,5.01,-14.69,-15.21,0,*73
1532736334.65,50104,19.88,74098.0,5.01,-14.93,-15.21,0,*71
1532736335.9,50105,19.88,74096.8,5.03,-14.79,-15.35,0,*73
1532736337.17,50106,19.88,74098.3,5.01,-14.93,-15.35,0,*76
1532736338.44,50107,19.88,74100.0,5.01,-14.93,-15.35,0,*77
1532736339.69,50108,19.88,74094.8,5.01,-14.79,-15.29,0,*71
1532736340.92,50109,19.88,74098.0,5.01,-14.89,-15.29,0,*7F
1532736342.14,50110,19.88,74096.5,5.01,-14.69,-15.15,0,*76
1532736343.36,50111,19.88,74098.5,5.01,-14.69,-15.15,0,*77
1532736344.62,50112,19.88,74096.8,5.01,-14.47,-15.07,0,*7B
1532736345.87,50113,19.88,74098.8,5.01,-14.55,-15.07,0,*79
1532736347.15,50114,19.88,74096.0,5.01,-14.55,-14.93,0,*72
1532736348.36,50115,19.88,74098.3,5.01,-14.69,-15.07,0,*70
1532736349.61,50116,19.88,74094.5,5.01,-14.89,-15.21,0,*79
1532736350.86,50117,19.88,74098.8,5.01,-14.93,-15.29,0,*7B
1532736352.14,50118,19.88,74094.8,5.01,-14.93,-15.43,0,*78
1532736353.41,50119,19.88,74096.5,5.01,-14.93,-15.43,0,*79
1532736354.66,50120,19.88,74096.0,5.01,-14.93,-15.49,0,*79
1532736355.87,50121,19.88,74096.0,4.99,-15.07,-15.49,0,*74
1532736357.08,50122,19.88,74096.8,4.99,-15.07,-15.53,0,*7C
1532736358.28,50123,19.88,74096.5,4.99,-15.07,-15.49,0,*76
1532736359.55,50124,19.88,74098.3,5.01,-14.93,-15.35,0,*76
1532736360.76,50125,19.88,74098.3,4.99,-15.07,-15.49,0,*70
1532736362.03,50126,19.88,74096.0,5.01,-14.93,-15.43,0,*75
1532736363.26,50127,19.88,74094.8,4.99,-14.97,-15.49,0,*7A
1532736364.47,50128,19.88,74098.3,4.99,-15.07,-15.53,0,*76
1532736365.7,50129,19.88,74096.8,4.99,-15.07,-15.39,0,*7B
1532736366.93,50130,19.88,74096.8,4.99,-14.97,-15.49,0,*7C
1532736368.2,50131,19.88,74094.8,4.97,-15.01,-15.39,0,*7A
1532736369.47,50132,19.88,74096.5,4.97,-15.01,-15.57,0,*71
1532736370.7,50133,19.88,74096.0,4.99,-14.97,-15.49,0,*7F
1532736371.93,50134,19.88,74098.8,4.97,-15.07,-15.49,0,*7E
1532736373.15,50135,19.94,74098.8,4.97,-15.11,-15.53,0,*73
1532736374.42,50136,19.88,74096.8,4.97,-15.01,-15.43,0,*70
1532736375.69,50137,19.88,74094.8,4.97,-14.97,-15.43,0,*7F
1532736376.97,50138,19.88,74094.5,4.97,-14.97,-15.43,0,*70
1532736378.24,50139,19.94,74098.8,4.97,-15.01,-15.43,0,*7F
1532736379.48,50140,19.88,74096.5,4.97,-15.01,-15.53,0,*70
1532736380.73,50141,19.88,74098.0,4.95,-14.97,-15.43,0,*7C
1532736381.98,50142,19.88,74098.5,4.95,-15.01,-15.43,0,*71
1532736383.23,50143,19.88,74092.8,4.95,-15.01,-15.43,0,*70
1532736384.48,50144,19.88,74094.3,4.95,-14.97,-15.43,0,*79
1532736385.71,50145,19.88,74092.5,4.95,-15.11,-15.43,0,*77
1532736386.96,50146,19.88,74098.8,4.97,-15.01,-15.53,0,*76
1532736388.21,50147,19.88,74096.0,4.97,-15.01,-15.53,0,*77
1532736389.44,50148,19.88,74094.3,4.93,-15.07,-15.49,0,*71
1532736390.69,50149,19.88,74096.0,4.95,-15.01,-15.43,0,*7A
1532736391.95,50150,19.88,74098.5,4.93,-15.07,-15.39,0,*7F
1532736393.2,50151,19.88,74096.3,4.93,-15.07,-15.57,0,*76
1532736394.45,50152,19.88,74098.3,4.95,-15.01,-15.39,0,*7D
1532736395.71,50153,19.88,74096.0,4.95,-15.01,-15.39,0,*7C
1532736396.98,50154,19.88,74098.8,4.93,-15.01,-15.43,0,*70
1532736398.19,50155,19.88,74098.0,4.95,-14.89,-15.53,0,*77
1532736399.44,50156,19.88,74096.5,4.95,-14.97,-15.39,0,*77
1532736400.7,50157,19.88,74094.0,4.93,-15.01,-15.49,0,*79
1532736401.98,50158,19.88,74098.5,4.93,-14.93,-15.43,0,*76
1532736403.21,50159,19.88,74098.5,4.93,-15.07,-15.49,0,*71
1532736404.45,50160,19.88,74096.5,4.93,-15.07,-15.49,0,*7B
1532736405.73,50161,19.88,74096.8,4.93,-14.93,-15.43,0,*7C
1532736407.0,50162,19.88,74096.8,4.93,-15.01,-15.43,0,*75
1532736408.24,50163,19.88,74096.0,4.93,-15.07,-15.49,0,*78
1532736409.47,50164,19.88,74096.8,4.93,-15.07,-15.49,0,*7F
1532736410.75,50165,19.88,74094.8,4.93,-15.01,-15.43,0,*72
1532736412.0,50166,19.88,74094.8,4.93,-15.01,-15.49,0,*7B
1532736413.28,50167,19.88,74094.3,4.93,-15.01,-15.43,0,*70
1532736414.53,50168,19.88,74092.5,4.93,-15.01,-15.49,0,*75
1532736415.81,50169,19.88,74098.3,4.93,-15.01,-15.43,0,*7E
1532736417.08,50170,19.88,74094.0,4.91,-14.93,-15.43,0,*7E
1532736418.33,50171,19.88,74098.8,4.91,-15.07,-15.43,0,*73
1532736419.61,50172,19.88,74094.0,4.93,-14.93,-15.43,0,*7E
1532736420.89,50173,19.88,74094.8,4.93,-14.93,-15.43,0,*7F
1532736422.17,50174,19.88,74096.8,4.93,-14.93,-15.43,0,*78
1532736423.42,50175,19.88,74096.0,4.93,-14.89,-15.43,0,*72
1532736424.69,50176,19.88,74096.0,4.91,-14.93,-15.35,0,*79
1532736425.96,50177,19.88,74092.5,4.91,-14.93,-15.35,0,*78
1532736427.22,50178,19.88,74094.5,4.93,-14.93,-15.49,0,*7E
1532736428.45,50179,19.88,74096.5,4.93,-15.07,-15.49,0,*73
1532736429.71,50180,19.88,74094.0,4.93,-15.01,-15.49,0,*73
1532736430.98,50181,19.88,74098.3,4.93,-15.01,-15.43,0,*78
1532736432.25,50182,19.88,74092.8,4.91,-15.01,-15.35,0,*78
1532736433.5,50183,19.88,74094.5,4.91,-14.93,-15.49,0,*78
1532736434.77,50184,19.88,74094.3,4.91,-15.01,-15.43,0,*7F
1532736436.04,50185,19.88,74092.0,4.91,-14.93,-15.43,0,*74
1532736437.31,50186,19.88,74098.0,4.91,-14.93,-15.43,0,*77
1532736438.56,50187,19.88,74094.0,4.93,-15.01,-15.49,0,*74
1532736439.83,50188,19.88,74096.0,4.91,-15.01,-15.43,0,*73
1532736441.1,50189,19.88,74094.8,4.91,-15.01,-15.43,0,*72
1532736442.32,50190,19.88,74094.3,4.91,-15.07,-15.49,0,*76
1532736443.57,50191,19.88,74096.0,4.91,-15.01,-15.49,0,*71
1532736444.82,50192,19.88,74094.8,4.91,-15.01,-15.49,0,*72
1532736446.09,50193,19.88,74094.8,4.91,-14.93,-15.43,0,*73
1532736447.29,50194,19.88,74092.5,4.89,-15.11,-15.49,0,*7C
1532736448.56,50195,19.88,74096.5,4.91,-15.01,-15.43,0,*7F
1532736449.8,50196,19.88,74094.8,4.91,-15.07,-15.35,0,*7B
1532736451.07,50197,19.88,74094.3,4.91,-14.93,-15.43,0,*77
1532736452.34,50198,19.88,74092.8,4.91,-14.93,-15.35,0,*79
1532736453.61,50199,19.88,74094.3,4.91,-14.93,-15.35,0,*78
1532736454.85,50200,19.88,74096.0,4.93,-14.89,-15.29,0,*7F
1532736456.12,50201,19.88,74094.3,4.93,-14.93,-15.35,0,*78
1532736457.37,50202,19.94,74098.8,4.91,-14.93,-15.29,0,*74
1532736458.63,50203,19.88,74092.5,4.93,-14.93,-15.29,0,*77
1532736459.86,50204,19.88,74096.5,4.91,-14.89,-15.29,0,*79
1532736461.11,50205,19.88,74094.8,4.91,-14.75,-15.15,0,*74
1532736462.38,50206,19.88,74096.5,4.91,-14.83,-15.21,0,*79
1532736463.66,50207,19.88,74096.5,4.91,-14.83,-15.21,0,*78
1532736464.93,50208,19.88,74098.0,4.91,-14.83,-15.21,0,*77
1532736466.21,50209,19.88,74094.0,4.91,-14.83,-15.21,0,*76
1532736467.49,50210,19.88,74092.3,4.91,-14.83,-15.21,0,*7E
1532736468.72,50211,19.88,74092.5,4.91,-14.89,-15.29,0,*7D
1532736469.97,50212,19.88,74094.3,4.93,-14.89,-15.35,0,*71
1532736471.22,50213,19.88,74092.8,4.91,-14.89,-15.35,0,*72
1532736472.47,50214,19.88,74092.5,4.91,-14.89,-15.35,0,*75
1532736473.7,50215,19.88,74094.8,4.91,-14.89,-15.29,0,*79
1532736474.91,50216,19.88,74096.3,4.95,-14.89,-15.29,0,*7E
1532736476.15,50217,19.88,74094.8,4.93,-14.89,-15.29,0,*79
1532736477.38,50218,19.88,74094.3,4.93,-14.89,-15.29,0,*76
1532736478.64,50219,19.88,74094.5,4.93,-14.93,-15.29,0,*7C
1532736479.92,50220,19.88,74094.3,4.93,-14.93,-15.35,0,*7B
1532736481.16,50221,19.88,74092.0,4.93,-14.89,-15.29,0,*7C
1532736482.39,50222,19.88,74094.8,4.93,-14.89,-15.29,0,*7F
1532736483.63,50223,19.88,74096.8,4.93,-14.89,-15.29,0,*7E
1532736484.91,50224,19.88,74092.8,4.93,-14.93,-15.35,0,*7F
1532736486.17,50225,19.88,74096.5,4.93,-14.93,-15.29,0,*73
1532736487.44,50226,19.88,74094.0,4.93,-14.93,-15.35,0,*7D
1532736488.68,50227,19.88,74094.0,4.93,-14.89,-15.29,0,*7A
1532736489.92,50228,19.88,74094.0,4.93,-14.89,-15.29,0,*75
1532736491.19,50229,19.88,74092.5,4.93,-14.93,-15.35,0,*72
1532736492.43,50230,19.88,74098.8,4.93,-14.89,-15.29,0,*7C
1532736493.69,50231,19.88,74096.0,4.93,-14.89,-15.35,0,*70
1532736494.94,50232,19.88,74096.0,4.93,-14.89,-15.35,0,*73
1532736496.2,50233,19.88,74092.8,4.93,-14.89,-15.35,0,*72
1532736497.43,50234,19.88,74094.3,4.93,-14.89,-15.29,0,*78
1532736498.67,50235,19.88,74094.8,4.93,-14.89,-15.29,0,*79
1532736499.93,50236,19.88,74096.5,4.93,-14.89,-15.43,0,*76
1532736501.17,50237,19.88,74094.3,4.95,-14.83,-15.25,0,*7B
1532736502.45,50238,19.88,74094.5,4.93,-14.93,-15.43,0,*73
1532736503.69,50239,19.88,74094.3,4.93,-14.89,-15.29,0,*75
1532736504.93,50240,19.88,74094.0,4.93,-14.89,-15.29,0,*7B